User: anonymous   Login
Location: Drocourt
(49.0571°N, 1.7669°E)
Time: 12:30:13
(UTC+00:00)
Language:

SPACEBEE-110 - Orbit

View from above orbital plane
View from above orbital plane
View from above satellite
View from above satellite

Ground track
Ground track

The orbit data is extracted from the following two-line orbital elements,

1 48899U 21059W   24053.96382777  .00729615  22423-3  20509-2 0  9992
2 48899  97.5984 210.2523 0008829 301.9874  58.0541 15.93495981148264
Epoch (UTC): 22 February 2024 23:07:54
Eccentricity: 0.0008829
inclination: 97.5984°
perigee height: 286 km
apogee height: 298 km
right ascension of ascending node: 210.2523°
argument of perigee: 301.9874°
revolutions per day: 15.93495981
mean anomaly at epoch: 58.0541°
orbit number at epoch: 14826

The dashed part of the orbit path shows where the satellite is in the earth's shadow,  

DLR